Regional Weather Roundup
Issued by NWS

Home | Current Version | Previous Version | Text Only | Print | Product List | Glossary Off
Versions: 1 2 3 4 5 6 7 8 9 10 11 12 13 14 15 16 17 18 19 20 21 22 23 24 25 26 27 28 29 30 31 32 33 34 35 36 37 38 39 40 41 42 43 44 45 46 47 48 49 50

000
ASUS45 KBOU 251607
RWRCO

WEATHER ROUNDUP FOR COLORADO
NATIONAL WEATHER SERVICE DENVER/BOULDER CO
1000 AM MDT MON MAY 25 2015

NOTE: "FAIR" INDICATES FEW OR NO CLOUDS BELOW 12000 FEET WITH NO
SIGNIFICANT WEATHER AND/OR OBSTRUCTIONS TO VISIBILITY.

COZ001>005-013-030-031-251700-
...NORTHWEST COLORADO...

CITY           SKY/WX    TMP DP  RH WIND       PRES   REMARKS
CRAIG          CLOUDY    48  41  76 W8        30.02R
HAYDEN         CLOUDY    46  37  71 N3        30.02S
MEEKER         CLOUDY    48  40  73 CALM      30.02F
MOUNT WERNER   NOT AVBL
STEAMBOAT SPGS CLOUDY    41  37  86 NW3       30.03R
WALDEN         CLOUDY    41  30  65 S6        30.02S
$$

COZ006>008-011-251700-
...WEST CENTRAL VALLEYS...

CITY           SKY/WX    TMP DP  RH WIND       PRES   REMARKS
GRAND JUNCTION CLOUDY    53  45  74 SE6       30.00R
MONTROSE       MOSUNNY   52  42  69 CALM      30.04S
EAGLE          MOSUNNY   50  39  66 CALM      30.04F
RIFLE          CLOUDY    48  42  80 CALM      30.03S
DELTA          PTSUNNY   56  44  65 MISG      30.02S
NUCLA          CLOUDY    54  45  71 CALM      30.05S
$$

COZ017>023-064>068-251700-
...SOUTHWEST COLORADO...

CITY           SKY/WX    TMP DP  RH WIND       PRES   REMARKS
DURANGO        CLOUDY    48  43  82 CALM      30.05S
CORTEZ         CLOUDY    55  44  66 CALM      30.02S
PAGOSA SPRINGS CLOUDY    47  40  76 S3        30.08F
TELLURIDE      PTSUNNY   42  38  84 S3        30.11F
WOLF CREEK PAS NOT AVBL
$$

COZ009-010-012-014-032>034-037-058>063-251700-
...CENTRAL COLORADO...

CITY           SKY/WX    TMP DP  RH WIND       PRES   REMARKS
ASPEN          CLOUDY    42  34  73 CALM      30.06R
BUENA VISTA    CLOUDY    49  29  44 N5        30.02R
COPPER MTN     CLOUDY    32  28  86 W17       30.14R WCI  21
BERTHOUD PASS  CLOUDY    23  16  74 NW21G28   30.13R WCI   8
COTTONWOOD PAS CLOUDY    46  32  57 CALM      30.08R
GUNNISON       PTSUNNY   43  36  75 W7        30.08S
KREMMLING      CLOUDY    48  34  57 CALM      30.04S
LEADVILLE      CLOUDY    37  29  72 N7        30.07R
MONARCH PASS   CLOUDY    28  28 100 MISG      30.24S
SALIDA         MOSUNNY   55  37  50 W5        30.07S
SUNLIGHT       SNOW     N/A N/A N/A CALM        N/A  VSB 1/2
WILKERSON PASS MOSUNNY   34  28  80 W8G21     30.13R WCI  27
$$

COZ069>075-251700-
...SAN LUIS VALLEY/SANGRE DE CRISTO MOUNTAINS...

CITY           SKY/WX    TMP DP  RH WIND       PRES   REMARKS
ALAMOSA        SUNNY     52  33  48 NE6       30.03R
LA VETA PASS   PTSUNNY  N/A N/A N/A MISG      30.09R
SAGUACHE       NOT AVBL
$$

COZ035-036-038>040-251700-
...NORTHERN COLORADO FRONT RANGE...

CITY           SKY/WX    TMP DP  RH WIND       PRES   REMARKS
DENVER INTL AP PTSUNNY   56  42  59 E3        29.92S
DMNS CITY PARK   N/A     60  39  45 E5        29.91S
AURORA         NOT AVBL
FRONT RANGE AP NOT AVBL
ERIE MUNI ARPT MOSUNNY   56  43  61 E3        29.92R
BOULDER MUN AP MOSUNNY   54  41  62 CALM      29.91S
CENTENNIAL     MOSUNNY   55  39  54 VRB3      29.93R
BROOMFIELD     NOT AVBL
FORT COLLINS   CLOUDY    52  43  71 S5        29.93S
LONGMONT       CLOUDY    58  44  59 CALM      29.93S
$$

COZ041-046-047-076>085-087-088-251700-
...PIKES PEAK/PALMER DIVIDE AND SOUTHERN FOOTHILLS...

CITY           SKY/WX    TMP DP  RH WIND       PRES   REMARKS
COLO. SPRINGS  PTSUNNY   56  40  55 S10       29.95R
A. F. ACADEMY  MOSUNNY   56  35  44 S3        29.94S
ELLICOTT       NOT AVBL
FALCON         MOSUNNY   56  32  38 N6        29.98R
FORT CARSON    NOT AVBL
LIMON          SUNNY     56  44  64 NW12      29.92S
MONUMENT HILL  NOT AVBL
TRINIDAD       PTSUNNY   58  43  57 N7        29.91F
$$

COZ042>045-048>051-090-091-251700-
...NORTHEAST COLORADO...

CITY           SKY/WX    TMP DP  RH WIND       PRES   REMARKS
GREELEY ARPT   CLOUDY    54  43  66 CALM      29.92S
AKRON          CLOUDY    57  47  69 NW18      29.89S
BURLINGTON     MOSUNNY   60  47  61 NW16      29.88S
WRAY           MOSUNNY   62  49  61 NW16      29.86R
STERLING       PTSUNNY   55  46  71 NW14      29.86S
HOLYOKE        NOT AVBL
FORT MORGAN    LGT RAIN  51  47  86 N8        29.91S
$$

COZ086-089-092>099-251700-
...SOUTHEAST COLORADO...

CITY           SKY/WX    TMP DP  RH WIND       PRES   REMARKS
PUEBLO         PTSUNNY   58  45  62 CALM      29.91R
LA JUNTA       PTSUNNY   59  49  69 VRB5      29.88S
LAMAR          SUNNY     62  51  67 NW5       29.83F
SPRINGFIELD      N/A     64  44  48 NE5       29.89R
$$



USA.gov is the U.S. government's official web portal to all federal, state and local government web resources and services.